Flag for Lithuania Weather past 2 weeks in Kaunas, Lithuania

Now
84 °F

Passing clouds.


Feels Like: 83 °F
Forecast: 68 / 84 °F
Wind: 9 mph from South

Location: Kaunas

Current Time: Jul 30, 2014 at 12:38:16 PM

Latest Report: Jul 30, 2014 at 11:50 AM


Visibility: N/A

Pressure: 29.86 "Hg

Humidity: 37%

Dew point: 55 °F

Location of KaunasLocation

Historic Weather in Kaunas — Graph

°F

Kaunas temperature yesterday

Maximum temperature yesterday: 91 °F (at 3:20 PM)
Minimum temperature yesterday: 63 °F (at 3:20 AM)
Average temperature yesterday: 76 °F

Past Weeks' High & Low Weather Summary

 TemperatureHumidityPressure
High91 °F (Jul 29, 3:20 PM)94% (Jul 16, 4:20 AM)30.18 "Hg (Jul 16, 4:20 AM)
Low50 °F (Jul 24, 5:20 AM)22% (Jul 27, 3:20 PM)29.83 "Hg (Jul 29, 4:20 PM)
Average70 °F62%30.05 "Hg
* Reported Jul 15 11:20 AM — Jul 30 11:20 AM, Kaunas, Weather by CustomWeather, © 2014

Note: Actual official high and low records may vary slightly from our data, if they occured in-between our weather recording intervals... More about our weather records

Advertising

Kaunas weather history for previous 24 hours

 ConditionsComfort  
Time TempWeatherWind HumidityBarometerVisibility
11:20 AM
Jul 30
84 °FPassing clouds.7 mph40%29.86 "HgN/A
10:50 AM82 °FPassing clouds.7 mph42%29.86 "HgN/A
10:20 AM79 °FPassing clouds.7 mph48%29.86 "HgN/A
9:50 AM77 °FPassing clouds.6 mph51%29.86 "HgN/A
9:20 AM75 °FPassing clouds.3 mph54%29.86 "HgN/A
8:50 AM73 °FPassing clouds.5 mph53%29.86 "HgN/A
8:20 AM72 °FPassing clouds.5 mph61%29.86 "HgN/A
7:50 AM70 °FPassing clouds.5 mph60%29.86 "HgN/A
7:20 AM68 °FSunny.1 mph64%29.86 "Hg10 mi
6:50 AM63 °FSunny.2 mph83%29.86 "Hg10 mi
6:20 AM61 °FClear.2 mph83%29.83 "Hg10 mi
5:50 AM63 °FClear.2 mph77%29.83 "Hg10 mi
5:20 AM63 °FClear.2 mph83%29.86 "Hg10 mi
4:50 AM63 °FClear.No wind83%29.83 "Hg10 mi
4:20 AM61 °FClear.3 mph88%29.83 "Hg10 mi
3:50 AM61 °FClear.3 mph94%29.83 "Hg10 mi
3:20 AM63 °FMild.1 mph88%29.86 "HgN/A
2:50 AM63 °FMild.2 mph88%29.86 "HgN/A
2:20 AM63 °FMild.6 mph88%29.86 "HgN/A
1:50 AM64 °FMild.8 mph83%29.86 "HgN/A
1:20 AM64 °FMild.6 mph83%29.86 "HgN/A
12:50 AM68 °FMild.5 mph78%29.86 "HgN/A
12:20 AM68 °FMild.6 mph78%29.89 "HgN/A
11:50 PM
Jul 29
70 °FPassing clouds.6 mph73%29.86 "HgN/A
11:20 PM70 °FPassing clouds.5 mph69%29.86 "HgN/A
10:50 PM70 °FClear.2 mph69%29.86 "Hg10 mi
10:20 PM73 °FPassing clouds.6 mph57%29.86 "HgN/A
9:50 PM70 °FSunny.2 mph73%29.83 "Hg10 mi
9:20 PM72 °FSunny.No wind65%29.83 "Hg10 mi
8:50 PM77 °FSunny.8 mph47%29.83 "Hg10 mi
8:20 PM77 °FPassing clouds.12 mph51%29.86 "HgN/A
7:50 PM79 °FPartly sunny.5 mph70%29.86 "HgN/A
7:20 PM81 °FPartly sunny.2 mph54%29.83 "HgN/A
6:50 PM79 °FThundershowers. Broken clouds.7 mph54%29.83 "HgN/A
6:20 PM88 °FPassing clouds.7 mph31%29.83 "HgN/A
5:50 PM90 °FPassing clouds.6 mph29%29.83 "HgN/A
5:20 PM90 °FPassing clouds.10 mph27%29.83 "HgN/A
4:50 PM90 °FPassing clouds.8 mph26%29.83 "HgN/A
4:20 PM91 °FPassing clouds.8 mph24%29.83 "HgN/A
3:50 PM90 °FPassing clouds.9 mph26%29.86 "HgN/A
3:20 PM91 °FPassing clouds.12 mph26%29.86 "HgN/A
2:50 PM90 °FPassing clouds.10 mph29%29.89 "HgN/A
2:20 PM90 °FPassing clouds.9 mph29%29.89 "HgN/A
1:50 PM90 °FPassing clouds.10 mph31%29.89 "HgN/A
1:20 PM88 °FSunny.9 mph35%29.89 "Hg10 mi
12:50 PM88 °FPassing clouds.9 mph35%29.89 "HgN/A
12:20 PM86 °FPassing clouds.8 mph38%29.92 "HgN/A
Weather by CustomWeather, © 2014

See weather overviewHow to use our weather pages